[[{"header":{"parameterUnit":"m.s-1","parameterCategory":1,"la1":30.2991,"la2":30.254,"lo1":-89.0895,"lo2":-89.0444,"dy":0.0017,"dx":0.0017,"nx":28,"ny":28,"refTime":"2023-03-30T15:00:00:Z","depth":0,"parameterNumber":2,"parameterNumberName":"U-component_of_WINDS"},"data":[0,0,0,0,0,0,0,0,0,0,0,0,0,0,0,0,0,0,0,0,0,0,0,0,0,0,0,0,0,0,0,0,0,0,0,0,0,0,0,0,0,0,0,0,0,0,0,0,0,0,0,0,0,0,0,0,0,0,-5.44,-5.4402,0,-5.4575,-5.4577,-5.4579,-5.4566,-5.4563,-5.4561,-5.4558,-5.4738,-5.4745,-5.4752,0,0,0,0,0,0,0,0,0,0,0,0,0,-5.4056,-5.4062,-5.44,-5.4402,-5.4405,-5.4575,-5.4578,-5.458,-5.4567,-5.4563,-5.456,-5.4557,-5.4736,-5.4744,-5.4753,0,0,0,0,0,0,0,0,0,0,0,0,0,-5.4216,-5.4064,-5.44,-5.4418,-5.4422,-5.4575,-5.4578,-5.4581,-5.4567,-5.4563,-5.4559,-5.4556,-5.4733,-5.4743,-5.4754,-5.49,0,0,-5.4787,-5.4792,0,0,0,0,0,0,0,0,-5.4207,-5.4228,-5.4413,-5.4417,-5.4421,-5.4545,-5.4522,-5.4688,-5.4568,-5.4512,-5.4558,-5.4554,-5.4677,-5.4692,-5.4734,-5.4908,-5.4916,-5.4788,-5.4795,-5.4799,-5.4802,0,0,0,0,0,0,0,-5.4196,-5.4221,-5.4469,-5.4416,-5.4421,-5.4419,-5.4437,-5.4553,-5.4614,-5.4517,-5.4516,-5.4537,-5.4678,-5.4723,-5.4738,-5.4919,-5.4788,-5.4798,-5.4804,-5.4808,-5.5222,-5.5227,0,0,0,0,0,0,-5.418,-5.4211,-5.4464,-5.4475,-5.4302,-5.4428,-5.4449,-5.4509,-5.4613,-5.4625,-5.454,-5.4536,-5.4707,-5.4725,-5.4744,-5.4921,-5.4799,-5.4809,-5.4816,-5.5218,-5.5223,-5.5228,0,0,0,0,0,0,-5.4173,-5.4203,-5.4457,-5.4343,-5.4375,-5.4438,-5.4506,-5.4515,-5.4559,-5.4631,-5.4642,-5.4575,-5.4704,-5.4729,-5.4861,-5.4927,-5.4814,-5.4824,-5.5213,-5.5219,-5.5226,-5.5276,0,0,0,0,0,0,-5.4163,-5.42,-5.4255,-5.4344,-5.4381,-5.4571,-5.4511,-5.4521,-5.4578,-5.4574,-5.4666,-5.4678,-5.4703,-5.4845,-5.4872,-5.494,-5.4833,-5.5207,-5.5216,-5.5224,-5.5269,-5.5283,-5.5296,0,0,0,0,0,-5.4151,-5.4262,-5.4258,-5.4289,-5.4452,-5.4574,-5.4595,-5.4622,-5.4584,-5.464,-5.4686,-5.4675,-5.4916,-5.4859,-5.4889,-5.4961,-5.5203,-5.5213,-5.5223,-5.5262,-5.5281,-5.5296,0,0,0,0,0,0,-5.4179,-5.4274,-5.4271,-5.4415,-5.4487,-5.4572,-5.4643,-5.4641,-5.4725,-5.4718,-5.4748,-5.4769,-5.4902,-5.4945,-5.488,-5.5108,-5.5054,-5.5071,-5.5074,-5.5092,-5.5106,-5.5091,-5.4842,0,0,0,0,0,-5.4202,-5.4293,-5.4372,-5.4492,-5.4528,-5.458,-5.4634,-5.4649,-5.4725,-5.4755,-5.4811,-5.4885,-5.4978,-5.5038,-5.5127,-5.5276,-5.5296,-5.5341,-5.5355,-5.5366,-5.5379,-5.5461,-5.5481,-5.5261,-5.5261,-5.5261,0,0,-5.425,-5.4314,-5.4369,-5.4499,-5.4556,-5.465,-5.4605,-5.4706,-5.4777,-5.477,-5.4898,-5.4943,-5.5027,-5.5169,-5.5234,-5.5209,-5.5445,-5.5379,-5.5387,-5.5394,-5.5473,-5.5494,-5.5512,-5.5268,-5.5267,-5.5266,0,0,-5.4386,-5.4444,-5.4549,-5.4608,-5.4696,-5.473,-5.4756,-5.4843,-5.4871,-5.5001,-5.4998,-5.5083,-5.5242,-5.5302,-5.5354,-5.5516,-5.5508,-5.5545,-5.5615,-5.5695,-5.5712,-5.5728,-5.5784,-5.5804,-5.5558,-5.5558,-5.5558,0,-5.4434,-5.4575,-5.4604,-5.4706,-5.4763,-5.4764,-5.4871,-5.4927,-5.504,-5.5079,-5.505,-5.525,-5.5308,-5.5463,-5.5503,-5.5545,-5.5575,-5.5532,-5.5708,-5.5724,-5.5738,-5.5792,-5.5814,-5.5562,-5.5561,-5.5561,-5.5561,0,-5.4631,-5.4729,-5.4804,-5.4913,-5.4979,-5.5083,-5.5128,-5.5192,-5.5202,-5.524,-5.5372,-5.5441,-5.5545,-5.5583,-5.5594,-5.5741,-5.5723,-5.5701,-5.5647,-5.5762,-5.5814,-5.5835,-5.5567,-5.5566,-5.5565,-5.5564,0,0,-5.4785,-5.491,-5.4937,-5.4987,-5.5085,-5.5162,-5.5267,-5.5368,-5.5422,-5.5501,-5.559,-5.5726,-5.5706,-5.5765,-5.5783,-5.5854,-5.5976,-5.5823,-5.5826,-5.5847,-5.6141,-5.6155,-5.6179,-5.5973,-5.5978,-5.5981,-5.6134,0,-5.4929,-5.5114,-5.5144,-5.5307,-5.5398,-5.5402,-5.5494,-5.5564,-5.5603,-5.5687,-5.573,-5.5825,-5.5793,-5.5829,-5.5899,-5.5946,-5.6035,-5.5936,-5.6055,-5.6059,-5.6031,-5.6206,-5.6221,-5.6361,-5.6154,-5.6158,-5.616,0,-5.5121,-5.5204,-5.5376,-5.5463,-5.5503,-5.5584,-5.568,-5.576,-5.5841,-5.5865,-5.5932,-5.5942,-5.6052,-5.5997,-5.6149,-5.608,-5.6132,-5.6163,-5.6169,-5.6179,-5.6114,-5.6218,-5.6407,-5.6427,-5.6192,-5.619,-5.6187,0,-5.5214,-5.537,-5.5493,-5.5536,-5.5641,-5.5698,-5.5745,-5.5822,-5.5881,-5.5966,-5.6005,-5.6101,-5.6153,-5.6228,-5.6265,-5.6221,-5.6415,-5.6362,-5.6436,-5.6435,-5.6474,-5.647,-5.6671,-5.6512,-5.6511,-5.6511,-5.6511,0,-5.537,-5.5474,-5.5536,-5.5612,-5.573,-5.5765,-5.588,-5.5926,-5.5995,-5.6079,-5.609,-5.6169,-5.6214,-5.63,-5.633,-5.6451,-5.6475,-5.6497,-5.6503,-5.6495,-5.6491,-5.6526,-5.6516,-5.6517,-5.6515,-5.6514,-5.6513,0,-5.5492,-5.5538,-5.5672,-5.5761,-5.5786,-5.5869,-5.5945,-5.6019,-5.6059,-5.6166,-5.6194,-5.6256,-5.6358,-5.6404,-5.653,-5.655,-5.6688,-5.6688,-5.666,-5.6661,-5.6732,-5.6724,-5.696,-5.6993,-5.6814,-5.6815,-5.6817,0,-5.5587,-5.5667,-5.5766,-5.5823,-5.5871,-5.5964,-5.6024,-5.6063,-5.6126,-5.6226,-5.6287,-5.639,-5.6474,-5.6638,-5.6694,-5.6791,-5.6793,-5.6869,-5.6807,-5.6796,-5.6792,-5.6785,-5.6793,-5.6879,-5.6881,-5.6882,-5.6883,0,-5.575,-5.5769,-5.5856,-5.5952,-5.6025,-5.6102,-5.6178,-5.6225,-5.6275,-5.6346,-5.6451,-5.6516,-5.6645,-5.6747,-5.6848,-5.6896,-5.6899,-5.6903,-5.6925,-5.6916,-5.6895,-5.6905,-5.6688,-5.6897,-5.6895,-5.6894,-5.6894,-5.6893,-5.586,-5.5932,-5.6012,-5.6109,-5.6171,-5.6242,-5.6315,-5.6365,-5.6453,-5.6561,-5.6579,-5.6691,-5.6772,-5.6907,-5.696,-5.7048,-5.7029,-5.7062,-5.707,-5.7076,-5.708,-5.6884,-5.7067,-5.7067,-5.7067,-5.7066,-5.7066,0,-5.6022,-5.6074,-5.6164,-5.6269,-5.6346,-5.6343,-5.6427,-5.6491,-5.6589,-5.6665,-5.6747,-5.6868,-5.6968,-5.7033,-5.7134,-5.7192,-5.7196,-5.7217,-5.7212,-5.7223,-5.7091,-5.7061,-5.7212,-5.7212,-5.7212,-5.7212,-5.7212,-5.7212,-5.6115,-5.6236,-5.6265,-5.6417,-5.6469,-5.6578,-5.6627,-5.6693,-5.6753,-5.6887,-5.697,-5.7012,-5.7084,-5.719,-5.7282,-5.7299,-5.7334,-5.7356,-5.7372,-5.7247,-5.7232,-5.7217,-5.7189,-5.7364,-5.7365,-5.7496,-5.7497,-5.7498]},{"header":{"parameterUnit":"m.s-1","parameterCategory":1,"la1":30.2991,"la2":30.254,"lo1":-89.0895,"lo2":-89.0444,"dy":0.0017,"dx":0.0017,"nx":28,"ny":28,"refTime":"2023-03-30T15:00:00:Z","depth":0,"parameterNumber":3,"parameterNumberName":"V-component_of_WINDS"},"data":[0,0,0,0,0,0,0,0,0,0,0,0,0,0,0,0,0,0,0,0,0,0,0,0,0,0,0,0,0,0,0,0,0,0,0,0,0,0,0,0,0,0,0,0,0,0,0,0,0,0,0,0,0,0,0,0,0,0,3.5983,3.5983,0,3.6017,3.6017,3.6018,3.6005,3.6004,3.6003,3.6002,3.6036,3.6037,3.6039,0,0,0,0,0,0,0,0,0,0,0,0,0,3.5907,3.5908,3.5983,3.5983,3.5984,3.6017,3.6017,3.6018,3.6005,3.6004,3.6003,3.6002,3.6035,3.6037,3.6039,0,0,0,0,0,0,0,0,0,0,0,0,0,3.594,3.5909,3.5983,3.5981,3.5981,3.6017,3.6017,3.6018,3.6005,3.6004,3.6003,3.6002,3.6035,3.6037,3.6039,3.6078,0,0,3.6047,3.6048,0,0,0,0,0,0,0,0,3.5938,3.5943,3.5981,3.5981,3.5982,3.6005,3.6003,3.6038,3.6005,3.5996,3.6002,3.6001,3.6027,3.603,3.6039,3.608,3.6081,3.6047,3.6049,3.605,3.605,0,0,0,0,0,0,0,3.5936,3.5941,3.5996,3.5982,3.5982,3.5979,3.5982,3.601,3.6017,3.5997,3.5996,3.6,3.6027,3.6036,3.6039,3.6082,3.6047,3.6049,3.6051,3.6052,3.6158,3.616,0,0,0,0,0,0,3.5934,3.594,3.5995,3.5997,3.5957,3.5981,3.5985,3.5999,3.6017,3.6019,3.6001,3.5999,3.6033,3.6036,3.604,3.6088,3.605,3.6052,3.6053,3.6157,3.6159,3.616,0,0,0,0,0,0,3.5932,3.5939,3.5994,3.5968,3.5975,3.5984,3.5999,3.6,3.601,3.602,3.6022,3.6009,3.6032,3.6037,3.6069,3.6089,3.6053,3.6055,3.6155,3.6157,3.6159,3.6182,0,0,0,0,0,0,3.593,3.5938,3.5952,3.5969,3.5976,3.6022,3.6001,3.6002,3.6014,3.6012,3.6029,3.603,3.6031,3.6066,3.6072,3.6091,3.6057,3.6154,3.6156,3.6159,3.6179,3.6184,3.6189,0,0,0,0,0,3.5927,3.5957,3.5953,3.596,3.5995,3.6023,3.6027,3.6029,3.6016,3.6031,3.6038,3.603,3.6086,3.6069,3.6076,3.6096,3.6152,3.6156,3.6159,3.6177,3.6183,3.6189,0,0,0,0,0,0,3.5941,3.5959,3.5955,3.5991,3.6006,3.6021,3.6039,3.6035,3.6053,3.605,3.6051,3.6055,3.6088,3.6096,3.6077,3.6136,3.6117,3.6122,3.6129,3.6135,3.614,3.6136,3.6059,0,0,0,0,0,3.5949,3.597,3.5984,3.6015,3.6022,3.603,3.6042,3.6042,3.6057,3.6063,3.6073,3.6088,3.6109,3.6123,3.6143,3.6181,3.6185,3.6199,3.6204,3.6207,3.6211,3.6233,3.6239,3.617,3.617,3.617,0,0,3.5963,3.5976,3.5989,3.6018,3.6029,3.6052,3.6035,3.6059,3.6076,3.6067,3.6098,3.6106,3.6123,3.6159,3.6175,3.6166,3.6231,3.6211,3.6214,3.6215,3.6237,3.6243,3.6249,3.6172,3.6172,3.6172,0,0,3.6002,3.6014,3.6041,3.6054,3.6072,3.6077,3.6084,3.6101,3.6106,3.6138,3.6132,3.6152,3.6189,3.6201,3.6212,3.626,3.6254,3.6267,3.629,3.6312,3.6317,3.6322,3.6339,3.6345,3.6271,3.6271,3.6271,0,3.6018,3.6052,3.6055,3.6081,3.6094,3.6088,3.6116,3.6128,3.6152,3.6161,3.6151,3.6198,3.6209,3.6249,3.6261,3.627,3.6278,3.6264,3.6317,3.6321,3.6326,3.6342,3.6349,3.6272,3.6272,3.6272,3.6272,0,3.6071,3.6095,3.6115,3.614,3.6155,3.6182,3.6189,3.6205,3.6204,3.6211,3.6245,3.6258,3.6281,3.6291,3.629,3.6331,3.6325,3.6316,3.6297,3.6334,3.6349,3.6356,3.6274,3.6274,3.6273,3.6273,0,0,3.6116,3.6145,3.6152,3.6164,3.6185,3.6204,3.6231,3.6255,3.6269,3.6287,3.631,3.6342,3.6335,3.6347,3.6349,3.6368,3.6406,3.6356,3.6357,3.6365,3.6452,3.6458,3.6465,3.6402,3.6404,3.6404,3.6451,0,3.6157,3.6205,3.6209,3.6252,3.6275,3.6272,3.6296,3.6312,3.632,3.6341,3.6349,3.6372,3.6361,3.6369,3.6388,3.6397,3.6423,3.6394,3.6423,3.6424,3.6418,3.6473,3.6479,3.6522,3.6457,3.6458,3.6458,0,3.6209,3.623,3.6275,3.6296,3.6306,3.6327,3.6351,3.6371,3.639,3.6394,3.641,3.641,3.6439,3.642,3.646,3.6441,3.6454,3.646,3.6462,3.6463,3.6442,3.6476,3.6535,3.6542,3.6468,3.6467,3.6466,0,3.6238,3.6277,3.631,3.632,3.6345,3.636,3.6371,3.6389,3.6404,3.6425,3.6435,3.6459,3.6471,3.649,3.6496,3.6483,3.6536,3.6518,3.6541,3.6541,3.655,3.6549,3.6612,3.6561,3.6561,3.6561,3.656,0,3.6281,3.6309,3.6323,3.6343,3.6375,3.6381,3.6412,3.6423,3.6439,3.6462,3.6461,3.6482,3.6489,3.6512,3.6517,3.655,3.6556,3.656,3.6561,3.656,3.6559,3.6567,3.6563,3.6562,3.6562,3.6562,3.6561,0,3.6317,3.6328,3.6363,3.6385,3.6391,3.6414,3.6432,3.6452,3.6461,3.6489,3.6496,3.651,3.6537,3.6546,3.6577,3.6581,3.6619,3.6618,3.6613,3.6613,3.6634,3.6632,3.6703,3.6713,3.6656,3.6656,3.6657,0,3.6344,3.6365,3.639,3.6406,3.6418,3.6442,3.6458,3.6466,3.6483,3.6508,3.6525,3.6552,3.6573,3.6616,3.6629,3.6654,3.6653,3.6676,3.6656,3.6655,3.6653,3.6651,3.6653,3.6679,3.668,3.668,3.6681,0,3.639,3.6395,3.6418,3.6443,3.6463,3.6483,3.6503,3.6515,3.6527,3.6545,3.6573,3.659,3.6625,3.6651,3.6677,3.6689,3.6687,3.6688,3.6694,3.6692,3.6688,3.669,3.6622,3.6685,3.6685,3.6684,3.6684,3.6684,3.6421,3.6441,3.6462,3.6489,3.6505,3.6524,3.6544,3.6557,3.658,3.6609,3.6613,3.6643,3.6664,3.6699,3.6712,3.6736,3.6729,3.6738,3.6741,3.6743,3.6744,3.6686,3.6741,3.6741,3.6741,3.6741,3.674,0,3.6467,3.6481,3.6506,3.6534,3.6555,3.6554,3.6576,3.6594,3.6621,3.6641,3.6663,3.6696,3.6723,3.6739,3.6766,3.6782,3.6782,3.6789,3.6787,3.679,3.6749,3.674,3.6789,3.6789,3.6789,3.6789,3.6789,3.6789,3.6493,3.6527,3.6535,3.6577,3.6591,3.6621,3.6635,3.6653,3.6669,3.6706,3.6729,3.674,3.6758,3.6787,3.6812,3.6816,3.6826,3.6834,3.6837,3.6798,3.6793,3.6788,3.678,3.6836,3.6836,3.6876,3.6877,3.6877]}]]